This is the latest recevied weather packets stored in our database for station/object DF7PN-WX. If no packets are shown the sender has not sent any weather packets the latest 10 day(s).
| Time | Temp. | Humidity | Pressure | Rain* | Wind** | Luminosity | Snow |
|---|---|---|---|---|---|---|---|
| 1777876250 | 13.33° C | 70% | 1014.7 hPa | - | - | - | - |
| 1777875950 | 13.33° C | 74% | 1014.8 hPa | - | - | - | - |
| 1777875650 | 13.33° C | 74% | 1014.8 hPa | - | - | - | - |
| 1777875350 | 13.33° C | 71% | 1014.8 hPa | - | - | - | - |
| 1777875050 | 13.33° C | 70% | 1014.7 hPa | - | - | - | - |
| 1777874750 | 12.78° C | 72% | 1014.7 hPa | - | - | - | - |
| 1777874450 | 12.78° C | 73% | 1014.7 hPa | - | - | - | - |
| 1777874150 | 12.78° C | 73% | 1014.7 hPa | - | - | - | - |
| 1777873850 | 12.22° C | 74% | 1014.7 hPa | - | - | - | - |
| 1777873550 | 12.22° C | 74% | 1014.7 hPa | - | - | - | - |
| 1777873249 | 12.22° C | 76% | 1014.7 hPa | - | - | - | - |
| 1777872954 | 11.67° C | 79% | 1014.7 hPa | - | - | - | - |
| 1777872649 | 11.67° C | 80% | 1014.6 hPa | - | - | - | - |
| 1777872350 | 11.11° C | 80% | 1014.6 hPa | - | - | - | - |
| 1777872049 | 11.11° C | 80% | 1014.6 hPa | - | - | - | - |
| 1777871749 | 11.11° C | 81% | 1014.6 hPa | - | - | - | - |
| 1777871449 | 11.11° C | 79% | 1014.5 hPa | - | - | - | - |
| 1777871149 | 11.11° C | 81% | 1014.5 hPa | - | - | - | - |
| 1777870849 | 10.56° C | 81% | 1014.5 hPa | - | - | - | - |
| 1777870549 | 10.56° C | 81% | 1014.4 hPa | - | - | - | - |
| 1777870249 | 10.56° C | 82% | 1014.3 hPa | - | - | - | - |
| 1777869949 | 10.56° C | 82% | 1014.3 hPa | - | - | - | - |
| 1777869649 | 10° C | 82% | 1014.3 hPa | - | - | - | - |
| 1777869349 | 10.56° C | 80% | 1014.4 hPa | - | - | - | - |
| 1777869048 | 10.56° C | 82% | 1014.5 hPa | - | - | - | - |
* Rain since midnight (hover to see other rain measurements)
** Current wind speed in m/s (hover to see current wind gust speed)